Time,TemperatureF,DewpointF,PressureIn,WindDirection,WindDirectionDegrees,WindSpeedMPH,WindSpeedGustMPH,Humidity,HourlyPrecipIn,Conditions,Clouds,dailyrainin,SoftwareType,DateUTC
2013-11-05 00:01:00,32.2,24.2,30.57,NNE,17,0.0,0.0,72,0.00,CLR,CLR,0.00,WeatherDisplay:10.36,2013-11-05 05:01:00,
2013-11-05 00:02:00,32.2,24.2,30.57,NNE,17,1.2,0.0,72,0.00,CLR,CLR,0.00,WeatherDisplay:10.36,2013-11-05 05:02:00,
2013-11-05 00:04:00,32.4,24.0,30.57,NNE,17,0.0,0.0,71,0.00,CLR,CLR,0.00,WeatherDisplay:10.36,2013-11-05 05:04:00,
2013-11-05 00:10:00,32.5,23.8,30.57,NNE,17,0.0,1.0,70,0.00,CLR,CLR,0.00,WeatherDisplay:10.36,2013-11-05 05:10:00,
2013-11-05 00:15:00,32.7,24.0,30.57,NNE,17,0.0,0.0,70,0.00,CLR,CLR,0.00,WeatherDisplay:10.36,2013-11-05 05:15:00,
2013-11-05 00:20:00,32.8,24.1,30.58,NNE,17,0.0,0.0,70,0.00,CLR,CLR,0.00,WeatherDisplay:10.36,2013-11-05 05:20:00,
2013-11-05 00:25:00,32.9,24.2,30.58,NNE,17,0.0,0.0,70,0.00,CLR,CLR,0.00,WeatherDisplay:10.36,2013-11-05 05:25:00,
2013-11-05 00:30:00,32.8,24.1,30.58,NNE,17,0.0,0.0,70,0.00,CLR,CLR,0.00,WeatherDisplay:10.36,2013-11-05 05:30:00,
2013-11-05 00:35:00,32.8,24.1,30.58,NNE,15,0.0,0.2,70,0.00,CLR,CLR,0.00,WeatherDisplay:10.36,2013-11-05 05:35:00,
2013-11-05 00:40:00,32.9,24.2,30.58,NNE,15,0.0,0.0,70,0.00,CLR,CLR,0.00,WeatherDisplay:10.36,2013-11-05 05:40:00,
2013-11-05 00:45:00,33.1,24.4,30.58,NNE,15,2.3,2.3,70,0.00,CLR,CLR,0.00,WeatherDisplay:10.36,2013-11-05 05:45:00,
2013-11-05 00:50:00,33.1,24.4,30.58,NNE,15,0.0,0.0,70,0.00,CLR,CLR,0.00,WeatherDisplay:10.36,2013-11-05 05:50:00,
2013-11-05 00:55:00,33.2,24.5,30.57,NNE,15,1.2,0.0,70,0.00,CLR,CLR,0.00,WeatherDisplay:10.36,2013-11-05 05:55:00,
2013-11-05 01:01:00,33.4,24.7,30.58,NNE,15,1.2,0.0,70,0.00,CLR,CLR,0.00,WeatherDisplay:10.36,2013-11-05 06:01:00,
2013-11-05 01:06:00,33.7,24.6,30.57,NNE,15,2.3,2.3,69,0.00,CLR,CLR,0.00,WeatherDisplay:10.36,2013-11-05 06:06:00,
2013-11-05 01:11:00,33.8,24.7,30.57,NNE,15,0.0,0.0,69,0.00,CLR,CLR,0.00,WeatherDisplay:10.36,2013-11-05 06:11:00,
2013-11-05 01:16:00,34.0,24.9,30.57,NNE,15,0.0,0.0,69,0.00,CLR,CLR,0.00,WeatherDisplay:10.36,2013-11-05 06:16:00,
2013-11-05 01:21:00,34.0,24.9,30.57,NNE,15,0.0,0.0,69,0.00,CLR,CLR,0.00,WeatherDisplay:10.36,2013-11-05 06:21:00,
2013-11-05 01:26:00,34.1,25.0,30.57,NNE,15,0.0,0.0,69,0.00,CLR,CLR,0.00,WeatherDisplay:10.36,2013-11-05 06:26:00,
2013-11-05 01:31:00,34.1,25.3,30.57,NNE,15,0.0,0.0,70,0.00,CLR,CLR,0.00,WeatherDisplay:10.36,2013-11-05 06:31:00,
2013-11-05 01:36:00,34.1,25.3,30.57,NNE,15,0.0,0.0,70,0.00,CLR,CLR,0.00,WeatherDisplay:10.36,2013-11-05 06:36:00,
2013-11-05 01:41:00,34.1,25.3,30.56,NNE,15,0.0,0.0,70,0.00,CLR,CLR,0.00,WeatherDisplay:10.36,2013-11-05 06:41:00,
2013-11-05 01:46:00,34.3,25.2,30.56,NNE,15,0.0,0.0,69,0.00,CLR,CLR,0.00,WeatherDisplay:10.36,2013-11-05 06:46:00,
2013-11-05 01:51:00,34.3,25.2,30.56,NNE,15,0.0,0.0,69,0.00,CLR,CLR,0.00,WeatherDisplay:10.36,2013-11-05 06:51:00,
2013-11-05 01:56:00,34.4,25.3,30.56,NNE,15,0.0,0.0,69,0.00,CLR,CLR,0.00,WeatherDisplay:10.36,2013-11-05 06:56:00,
2013-11-05 02:01:00,34.4,24.9,30.56,NNE,15,0.0,0.0,68,0.00,CLR,CLR,0.00,WeatherDisplay:10.36,2013-11-05 07:01:00,
2013-11-05 02:06:00,34.4,25.3,30.55,NNE,15,0.0,0.0,69,0.00,CLR,CLR,0.00,WeatherDisplay:10.36,2013-11-05 07:06:00,
2013-11-05 02:11:00,34.3,25.5,30.55,NNE,15,0.0,0.0,70,0.00,CLR,CLR,0.00,WeatherDisplay:10.36,2013-11-05 07:11:00,
2013-11-05 02:16:00,34.1,25.3,30.54,NNE,15,0.0,0.0,70,0.00,CLR,CLR,0.00,WeatherDisplay:10.36,2013-11-05 07:16:00,
2013-11-05 02:21:00,34.0,25.2,30.54,NNE,15,0.0,0.0,70,0.00,CLR,CLR,0.00,WeatherDisplay:10.36,2013-11-05 07:21:00,
2013-11-05 02:26:00,33.8,25.0,30.54,NNE,15,0.0,0.0,70,0.00,CLR,CLR,0.00,WeatherDisplay:10.36,2013-11-05 07:26:00,
2013-11-05 02:31:00,33.4,25.3,30.53,NNE,15,0.0,0.0,72,0.00,CLR,CLR,0.00,WeatherDisplay:10.36,2013-11-05 07:31:00,
2013-11-05 02:36:00,33.1,25.4,30.53,NNE,15,0.0,0.0,73,0.00,CLR,CLR,0.00,WeatherDisplay:10.36,2013-11-05 07:36:00,
2013-11-05 02:42:00,32.9,25.2,30.53,NNE,15,0.0,0.0,73,0.00,CLR,CLR,0.00,WeatherDisplay:10.36,2013-11-05 07:42:00,
2013-11-05 02:47:00,32.7,25.3,30.53,NNE,15,0.0,0.0,74,0.00,CLR,CLR,0.00,WeatherDisplay:10.36,2013-11-05 07:47:00,
2013-11-05 02:52:00,32.4,25.4,30.54,NNE,15,0.0,0.0,75,0.00,CLR,CLR,0.00,WeatherDisplay:10.36,2013-11-05 07:52:00,
2013-11-05 02:57:00,32.1,25.1,30.54,NNE,15,0.0,0.0,75,0.00,CLR,CLR,0.00,WeatherDisplay:10.36,2013-11-05 07:57:00,
2013-11-05 03:02:00,31.9,25.2,30.54,NNE,15,0.0,0.0,76,0.00,CLR,CLR,0.00,WeatherDisplay:10.36,2013-11-05 08:02:00,
2013-11-05 03:07:00,31.8,25.1,30.54,NNE,15,0.0,0.0,76,0.00,CLR,CLR,0.00,WeatherDisplay:10.36,2013-11-05 08:07:00,
2013-11-05 03:12:00,31.8,25.1,30.54,NNE,15,0.0,0.0,76,0.00,CLR,CLR,0.00,WeatherDisplay:10.36,2013-11-05 08:12:00,
2013-11-05 03:17:00,31.8,24.8,30.54,NNE,15,0.0,0.0,75,0.00,CLR,CLR,0.00,WeatherDisplay:10.36,2013-11-05 08:17:00,
2013-11-05 03:22:00,31.8,24.8,30.54,NNE,15,0.0,0.0,75,0.00,CLR,CLR,0.00,WeatherDisplay:10.36,2013-11-05 08:22:00,
2013-11-05 03:27:00,31.9,24.6,30.54,NNE,15,0.0,0.0,74,0.00,CLR,CLR,0.00,WeatherDisplay:10.36,2013-11-05 08:27:00,
2013-11-05 03:32:00,31.9,24.6,30.55,NNE,15,1.2,1.2,74,0.00,CLR,CLR,0.00,WeatherDisplay:10.36,2013-11-05 08:32:00,
2013-11-05 03:37:00,31.9,24.6,30.55,NNE,15,0.0,0.0,74,0.00,CLR,CLR,0.00,WeatherDisplay:10.36,2013-11-05 08:37:00,
2013-11-05 03:42:00,32.1,24.7,30.55,NNE,15,0.0,0.0,74,0.00,CLR,CLR,0.00,WeatherDisplay:10.36,2013-11-05 08:42:00,
2013-11-05 03:47:00,32.2,24.5,30.55,NNE,15,0.0,0.0,73,0.00,CLR,CLR,0.00,WeatherDisplay:10.36,2013-11-05 08:47:00,
2013-11-05 03:52:00,32.4,24.7,30.55,NNE,15,0.0,0.0,73,0.00,CLR,CLR,0.00,WeatherDisplay:10.36,2013-11-05 08:52:00,
2013-11-05 03:57:00,32.7,25.0,30.55,NNE,15,0.0,0.0,73,0.00,CLR,CLR,0.00,WeatherDisplay:10.36,2013-11-05 08:57:00,
2013-11-05 04:02:00,32.8,25.1,30.55,NNE,15,0.0,0.0,73,0.00,CLR,CLR,0.00,WeatherDisplay:10.36,2013-11-05 09:02:00,
2013-11-05 04:07:00,32.9,25.2,30.56,NNE,15,0.0,0.0,73,0.00,CLR,CLR,0.00,WeatherDisplay:10.36,2013-11-05 09:07:00,
2013-11-05 04:12:00,32.9,25.2,30.55,NNE,15,0.0,0.0,73,0.00,CLR,CLR,0.00,WeatherDisplay:10.36,2013-11-05 09:12:00,
2013-11-05 04:17:00,32.9,25.2,30.55,NNE,15,0.0,0.0,73,0.00,CLR,CLR,0.00,WeatherDisplay:10.36,2013-11-05 09:17:00,
2013-11-05 04:22:00,33.1,25.1,30.56,NNE,15,0.0,0.0,72,0.00,CLR,CLR,0.00,WeatherDisplay:10.36,2013-11-05 09:22:00,
2013-11-05 04:27:00,33.2,24.8,30.56,NNE,15,0.0,0.0,71,0.00,CLR,CLR,0.00,WeatherDisplay:10.36,2013-11-05 09:27:00,
2013-11-05 04:32:00,33.2,25.1,30.56,NNE,15,0.0,0.0,72,0.00,CLR,CLR,0.00,WeatherDisplay:10.36,2013-11-05 09:32:00,
2013-11-05 04:37:00,33.4,25.0,30.56,NNE,15,0.0,0.0,71,0.00,CLR,CLR,0.00,WeatherDisplay:10.36,2013-11-05 09:37:00,
2013-11-05 04:42:00,33.4,25.0,30.56,NNE,15,0.0,0.0,71,0.00,CLR,CLR,0.00,WeatherDisplay:10.36,2013-11-05 09:42:00,
2013-11-05 04:47:00,33.5,25.1,30.56,NNE,15,0.0,0.0,71,0.00,CLR,CLR,0.00,WeatherDisplay:10.36,2013-11-05 09:47:00,
2013-11-05 04:50:00,33.5,25.1,30.56,NNE,15,0.0,0.0,71,0.00,CLR,CLR,0.00,WeatherDisplay:10.36,2013-11-05 09:50:00,
2013-11-05 04:52:00,33.5,25.1,30.56,NNE,15,0.0,0.0,71,0.00,CLR,CLR,0.00,WeatherDisplay:10.36,2013-11-05 09:52:00,
2013-11-05 04:57:00,33.5,25.1,30.56,NNE,15,0.0,0.0,71,0.00,CLR,CLR,0.00,WeatherDisplay:10.36,2013-11-05 09:57:00,
2013-11-05 05:07:00,33.4,24.7,30.56,NNE,15,0.0,0.0,70,0.00,CLR,CLR,0.00,WeatherDisplay:10.36,2013-11-05 10:07:00,
2013-11-05 05:12:00,33.4,24.7,30.56,NNE,15,0.0,0.0,70,0.00,CLR,CLR,0.00,WeatherDisplay:10.36,2013-11-05 10:12:00,
2013-11-05 05:26:00,33.2,25.1,30.56,NNE,15,0.0,0.0,72,0.00,CLR,CLR,0.00,WeatherDisplay:10.36,2013-11-05 10:26:00,
2013-11-05 05:31:00,33.2,25.1,30.56,NNE,15,0.0,0.0,72,0.00,CLR,CLR,0.00,WeatherDisplay:10.36,2013-11-05 10:31:00,
2013-11-05 05:42:00,33.1,25.4,30.56,NNE,15,0.0,0.0,73,0.00,CLR,CLR,0.00,WeatherDisplay:10.36,2013-11-05 10:42:00,
2013-11-05 05:47:00,32.8,25.1,30.56,NNE,15,0.0,0.0,73,0.00,CLR,CLR,0.00,WeatherDisplay:10.36,2013-11-05 10:47:00,
2013-11-05 05:52:00,32.7,25.3,30.56,NNE,15,0.0,0.0,74,0.00,CLR,CLR,0.00,WeatherDisplay:10.36,2013-11-05 10:52:00,
2013-11-05 05:57:00,32.5,25.1,30.56,NNE,15,0.0,0.0,74,0.00,CLR,CLR,0.00,WeatherDisplay:10.36,2013-11-05 10:57:00,
2013-11-05 06:02:00,32.4,25.0,30.56,NNE,15,2.3,0.0,74,0.00,CLR,CLR,0.00,WeatherDisplay:10.36,2013-11-05 11:02:00,
2013-11-05 06:07:00,32.4,25.4,30.57,NNE,15,0.0,0.0,75,0.00,CLR,CLR,0.00,WeatherDisplay:10.36,2013-11-05 11:07:00,
2013-11-05 06:12:00,32.5,25.5,30.56,NNE,15,0.0,0.0,75,0.00,CLR,CLR,0.00,WeatherDisplay:10.36,2013-11-05 11:12:00,
2013-11-05 06:17:00,32.5,25.5,30.56,NNE,15,0.0,0.0,75,0.00,CLR,CLR,0.00,WeatherDisplay:10.36,2013-11-05 11:17:00,
2013-11-05 06:22:00,32.4,25.4,30.56,NNE,15,0.0,0.0,75,0.00,CLR,CLR,0.00,WeatherDisplay:10.36,2013-11-05 11:22:00,
2013-11-05 06:27:00,32.2,25.2,30.56,NNE,15,0.0,0.0,75,0.00,CLR,CLR,0.00,WeatherDisplay:10.36,2013-11-05 11:27:00,
2013-11-05 06:32:00,32.1,25.1,30.56,NNE,15,0.0,0.0,75,0.00,CLR,CLR,0.00,WeatherDisplay:10.36,2013-11-05 11:32:00,
2013-11-05 06:37:00,31.9,25.2,30.56,NNE,15,0.0,0.0,76,0.00,CLR,CLR,0.00,WeatherDisplay:10.36,2013-11-05 11:37:00,
2013-11-05 06:42:00,31.9,25.2,30.56,NNE,15,0.0,0.0,76,0.00,CLR,CLR,0.00,WeatherDisplay:10.36,2013-11-05 11:42:00,
2013-11-05 06:47:00,31.9,25.2,30.56,NNE,15,0.0,0.0,76,0.00,CLR,CLR,0.00,WeatherDisplay:10.36,2013-11-05 11:47:00,
2013-11-05 06:52:00,31.9,25.2,30.57,NNE,15,0.0,0.0,76,0.00,CLR,CLR,0.00,WeatherDisplay:10.36,2013-11-05 11:52:00,
2013-11-05 06:57:00,32.1,25.4,30.57,NNE,15,0.0,0.0,76,0.00,CLR,CLR,0.00,WeatherDisplay:10.36,2013-11-05 11:57:00,
2013-11-05 07:02:00,32.2,25.5,30.57,NNE,15,0.0,0.0,76,0.00,CLR,CLR,0.00,WeatherDisplay:10.36,2013-11-05 12:02:00,
2013-11-05 07:07:00,32.4,25.7,30.57,NNE,15,0.0,0.0,76,0.00,CLR,CLR,0.00,WeatherDisplay:10.36,2013-11-05 12:07:00,
2013-11-05 07:12:00,32.5,25.8,30.56,NNE,15,0.0,0.0,76,0.00,CLR,CLR,0.00,WeatherDisplay:10.36,2013-11-05 12:12:00,
2013-11-05 07:17:00,32.5,25.8,30.56,NNE,15,0.0,0.0,76,0.00,CLR,CLR,0.00,WeatherDisplay:10.36,2013-11-05 12:17:00,
2013-11-05 07:22:00,32.7,26.0,30.57,NNE,15,0.0,0.0,76,0.00,CLR,CLR,0.00,WeatherDisplay:10.36,2013-11-05 12:22:00,
2013-11-05 07:27:00,32.8,26.1,30.57,NNE,15,0.0,0.0,76,0.00,CLR,CLR,0.00,WeatherDisplay:10.36,2013-11-05 12:27:00,
2013-11-05 07:32:00,33.1,26.7,30.56,NNE,15,1.2,0.0,77,0.00,CLR,CLR,0.00,WeatherDisplay:10.36,2013-11-05 12:32:00,
2013-11-05 07:37:00,33.7,26.9,30.56,NNE,15,0.0,0.0,76,0.00,CLR,CLR,0.00,WeatherDisplay:10.36,2013-11-05 12:37:00,
2013-11-05 07:42:00,34.1,27.0,30.56,NNE,15,0.0,0.0,75,0.00,CLR,CLR,0.00,WeatherDisplay:10.36,2013-11-05 12:42:00,
2013-11-05 07:47:00,34.9,27.5,30.56,NNE,15,0.0,0.0,74,0.00,CLR,CLR,0.00,WeatherDisplay:10.36,2013-11-05 12:47:00,
2013-11-05 07:52:00,35.5,27.4,30.56,NNE,15,0.0,0.0,72,0.00,CLR,CLR,0.00,WeatherDisplay:10.36,2013-11-05 12:52:00,
2013-11-05 07:57:00,36.2,28.0,30.56,NNE,15,1.2,1.2,72,0.00,CLR,CLR,0.00,WeatherDisplay:10.36,2013-11-05 12:57:00,
2013-11-05 08:02:00,36.8,27.9,30.56,NNE,14,1.2,0.0,70,0.00,CLR,CLR,0.00,WeatherDisplay:10.36,2013-11-05 13:02:00,
2013-11-05 08:07:00,37.2,28.3,30.56,NNE,14,0.0,0.0,70,0.00,CLR,CLR,0.00,WeatherDisplay:10.36,2013-11-05 13:07:00,
2013-11-05 08:12:00,37.6,28.3,30.56,NNE,14,0.0,0.0,69,0.00,CLR,CLR,0.00,WeatherDisplay:10.36,2013-11-05 13:12:00,
2013-11-05 08:17:00,38.0,28.7,30.56,NNE,14,0.0,0.0,69,0.00,CLR,CLR,0.00,WeatherDisplay:10.36,2013-11-05 13:17:00,
2013-11-05 08:22:00,38.3,28.7,30.57,NNE,14,1.2,0.0,68,0.00,CLR,CLR,0.00,WeatherDisplay:10.36,2013-11-05 13:22:00,
2013-11-05 08:27:00,38.6,28.9,30.57,NNE,14,0.0,0.0,68,0.00,CLR,CLR,0.00,WeatherDisplay:10.36,2013-11-05 13:27:00,
2013-11-05 08:32:00,38.9,29.2,30.57,NNE,14,0.0,0.0,68,0.00,CLR,CLR,0.00,WeatherDisplay:10.36,2013-11-05 13:32:00,
2013-11-05 08:37:00,39.2,29.5,30.56,NNE,14,0.0,0.0,68,0.00,CLR,CLR,0.00,WeatherDisplay:10.36,2013-11-05 13:37:00,
2013-11-05 08:42:00,39.5,29.8,30.56,NNE,14,0.0,0.0,68,0.00,CLR,CLR,0.00,WeatherDisplay:10.36,2013-11-05 13:42:00,
2013-11-05 08:47:00,39.9,30.2,30.56,NNE,14,1.0,0.0,68,0.00,CLR,CLR,0.00,WeatherDisplay:10.36,2013-11-05 13:47:00,
2013-11-05 08:52:00,40.2,30.1,30.57,NNE,13,3.5,3.5,67,0.00,CLR,CLR,0.00,WeatherDisplay:10.36,2013-11-05 13:52:00,
2013-11-05 08:57:00,40.6,30.5,30.57,NNE,13,0.0,0.0,67,0.00,CLR,CLR,0.00,WeatherDisplay:10.36,2013-11-05 13:57:00,
2013-11-05 09:02:00,41.1,30.6,30.57,NNE,13,2.3,2.3,66,0.00,CLR,CLR,0.00,WeatherDisplay:10.36,2013-11-05 14:02:00,
2013-11-05 09:07:00,41.2,30.7,30.57,NNE,13,0.0,0.0,66,0.00,CLR,CLR,0.00,WeatherDisplay:10.36,2013-11-05 14:07:00,
2013-11-05 09:12:00,41.5,30.6,30.57,NNE,13,1.0,0.0,65,0.00,CLR,CLR,0.00,WeatherDisplay:10.36,2013-11-05 14:12:00,
2013-11-05 09:17:00,41.9,31.4,30.57,NNE,13,0.0,0.0,66,0.00,CLR,CLR,0.00,WeatherDisplay:10.36,2013-11-05 14:17:00,
2013-11-05 09:22:00,42.5,32.3,30.57,NNE,13,0.0,0.0,67,0.00,CLR,CLR,0.00,WeatherDisplay:10.36,2013-11-05 14:22:00,
2013-11-05 09:27:00,43.3,32.7,30.57,NNE,13,2.3,0.0,66,0.00,CLR,CLR,0.00,WeatherDisplay:10.36,2013-11-05 14:27:00,
2013-11-05 09:32:00,43.9,32.9,30.57,NNE,13,0.0,0.0,65,0.00,CLR,CLR,0.00,WeatherDisplay:10.36,2013-11-05 14:32:00,
2013-11-05 09:37:00,44.5,33.5,30.57,NNE,13,0.0,0.0,65,0.00,CLR,CLR,0.00,WeatherDisplay:10.36,2013-11-05 14:37:00,
2013-11-05 09:42:00,44.9,33.5,30.57,NNE,13,0.0,0.0,64,0.00,CLR,CLR,0.00,WeatherDisplay:10.36,2013-11-05 14:42:00,
2013-11-05 09:47:00,45.5,33.6,30.56,NNE,14,1.0,1.0,63,0.00,CLR,CLR,0.00,WeatherDisplay:10.36,2013-11-05 14:47:00,
2013-11-05 09:52:00,46.0,33.7,30.56,NNE,14,0.0,0.0,62,0.00,CLR,CLR,0.00,WeatherDisplay:10.36,2013-11-05 14:52:00,
2013-11-05 09:57:00,46.2,33.5,30.56,NNE,14,0.0,0.0,61,0.00,CLR,CLR,0.00,WeatherDisplay:10.36,2013-11-05 14:57:00,
2013-11-05 10:02:00,46.5,33.8,30.56,NNE,14,0.0,0.0,61,0.00,CLR,CLR,0.00,WeatherDisplay:10.36,2013-11-05 15:02:00,
2013-11-05 10:07:00,46.8,34.0,30.56,NNE,29,2.0,2.0,61,0.00,CLR,CLR,0.00,WeatherDisplay:10.36,2013-11-05 15:07:00,
2013-11-05 10:12:00,47.0,34.2,30.56,NNE,29,1.2,0.0,61,0.00,CLR,CLR,0.00,WeatherDisplay:10.36,2013-11-05 15:12:00,
2013-11-05 10:17:00,47.3,34.1,30.55,NNE,29,0.0,0.0,60,0.00,CLR,CLR,0.00,WeatherDisplay:10.36,2013-11-05 15:17:00,
2013-11-05 10:22:00,47.9,34.7,30.56,ENE,70,1.2,0.0,60,0.00,CLR,CLR,0.00,WeatherDisplay:10.36,2013-11-05 15:22:00,
2013-11-05 10:27:00,48.2,34.5,30.56,ENE,70,1.2,0.0,59,0.00,CLR,CLR,0.00,WeatherDisplay:10.36,2013-11-05 15:27:00,
2013-11-05 10:32:00,48.5,34.4,30.56,SW,214,0.0,0.0,58,0.00,CLR,CLR,0.00,WeatherDisplay:10.36,2013-11-05 15:32:00,
2013-11-05 10:37:00,48.8,34.7,30.56,SW,214,0.0,0.0,58,0.00,CLR,CLR,0.00,WeatherDisplay:10.36,2013-11-05 15:37:00,
2013-11-05 10:42:00,49.4,35.2,30.56,SW,214,0.0,0.0,58,0.00,CLR,CLR,0.00,WeatherDisplay:10.36,2013-11-05 15:42:00,
2013-11-05 10:47:00,49.8,35.2,30.56,SE,142,0.0,0.0,57,0.00,CLR,CLR,0.00,WeatherDisplay:10.36,2013-11-05 15:47:00,
2013-11-05 10:52:00,49.8,34.7,30.56,East,98,2.3,0.0,56,0.00,CLR,CLR,0.00,WeatherDisplay:10.36,2013-11-05 15:52:00,
2013-11-05 10:57:00,49.8,35.2,30.56,SSE,151,0.0,0.0,57,0.00,CLR,CLR,0.00,WeatherDisplay:10.36,2013-11-05 15:57:00,
2013-11-05 11:02:00,49.9,35.3,30.56,SSE,151,0.0,0.0,57,0.00,CLR,CLR,0.00,WeatherDisplay:10.36,2013-11-05 16:02:00,
2013-11-05 11:07:00,49.9,35.3,30.56,ESE,117,0.0,0.7,57,0.00,CLR,CLR,0.00,WeatherDisplay:10.36,2013-11-05 16:07:00,
2013-11-05 11:12:00,50.2,35.5,30.56,South,186,2.3,2.3,57,0.00,CLR,CLR,0.00,WeatherDisplay:10.36,2013-11-05 16:12:00,
2013-11-05 11:17:00,50.4,35.7,30.56,South,191,3.0,3.0,57,0.00,CLR,CLR,0.00,WeatherDisplay:10.36,2013-11-05 16:17:00,
2013-11-05 11:22:00,50.5,35.8,30.55,SSW,193,0.0,0.0,57,0.00,CLR,CLR,0.00,WeatherDisplay:10.36,2013-11-05 16:22:00,
2013-11-05 11:27:00,50.7,36.0,30.55,SE,136,1.2,0.0,57,0.00,CLR,CLR,0.00,WeatherDisplay:10.36,2013-11-05 16:27:00,
2013-11-05 11:32:00,50.8,35.7,30.55,SSW,200,3.5,3.5,56,0.00,CLR,CLR,0.00,WeatherDisplay:10.36,2013-11-05 16:32:00,
2013-11-05 11:37:00,51.1,36.4,30.54,ESE,103,0.0,0.0,57,0.00,CLR,CLR,0.00,WeatherDisplay:10.36,2013-11-05 16:37:00,
2013-11-05 11:42:00,51.6,36.4,30.54,ESE,103,0.0,0.0,56,0.00,CLR,CLR,0.00,WeatherDisplay:10.36,2013-11-05 16:42:00,
2013-11-05 11:47:00,51.7,36.0,30.54,ESE,103,0.0,0.0,55,0.00,CLR,CLR,0.00,WeatherDisplay:10.36,2013-11-05 16:47:00,
2013-11-05 11:52:00,51.7,36.0,30.53,SE,131,1.2,0.0,55,0.00,CLR,CLR,0.00,WeatherDisplay:10.36,2013-11-05 16:52:00,
2013-11-05 11:57:00,51.7,36.0,30.53,SE,131,0.0,0.0,55,0.00,CLR,CLR,0.00,WeatherDisplay:10.36,2013-11-05 16:57:00,
2013-11-05 12:02:00,51.7,36.5,30.53,SE,131,0.0,0.0,56,0.00,CLR,CLR,0.00,WeatherDisplay:10.36,2013-11-05 17:02:00,
2013-11-05 12:07:00,51.9,36.7,30.52,SE,131,0.0,0.0,56,0.00,CLR,CLR,0.00,WeatherDisplay:10.36,2013-11-05 17:07:00,
2013-11-05 12:12:00,51.9,37.1,30.51,ESE,105,0.0,0.0,57,0.00,CLR,CLR,0.00,WeatherDisplay:10.36,2013-11-05 17:12:00,
2013-11-05 12:17:00,51.9,37.1,30.51,ESE,110,1.2,0.0,57,0.00,CLR,CLR,0.00,WeatherDisplay:10.36,2013-11-05 17:17:00,
2013-11-05 12:22:00,51.9,37.1,30.51,East,86,1.2,1.2,57,0.00,CLR,CLR,0.00,WeatherDisplay:10.36,2013-11-05 17:22:00,
2013-11-05 12:27:00,52.0,37.2,30.51,East,86,0.0,0.0,57,0.00,CLR,CLR,0.00,WeatherDisplay:10.36,2013-11-05 17:27:00,
2013-11-05 12:32:00,52.2,37.4,30.51,East,86,0.0,0.0,57,0.00,CLR,CLR,0.00,WeatherDisplay:10.36,2013-11-05 17:32:00,
2013-11-05 12:37:00,52.2,37.0,30.51,East,86,0.0,0.0,56,0.00,CLR,CLR,0.00,WeatherDisplay:10.36,2013-11-05 17:37:00,
2013-11-05 12:42:00,52.6,37.3,30.51,South,187,0.0,0.0,56,0.00,CLR,CLR,0.00,WeatherDisplay:10.36,2013-11-05 17:42:00,
2013-11-05 12:47:00,52.9,37.2,30.51,South,187,0.0,0.0,55,0.00,CLR,CLR,0.00,WeatherDisplay:10.36,2013-11-05 17:47:00,
2013-11-05 12:52:00,52.9,37.6,30.51,South,185,1.2,0.0,56,0.00,CLR,CLR,0.00,WeatherDisplay:10.36,2013-11-05 17:52:00,
2013-11-05 12:57:00,52.9,37.6,30.51,South,186,1.2,1.2,56,0.00,CLR,CLR,0.00,WeatherDisplay:10.36,2013-11-05 17:57:00,
2013-11-05 13:02:00,52.9,37.6,30.51,South,186,0.0,0.0,56,0.00,CLR,CLR,0.00,WeatherDisplay:10.36,2013-11-05 18:02:00,
2013-11-05 13:07:00,52.8,37.5,30.51,SE,134,0.0,0.0,56,0.00,CLR,CLR,0.00,WeatherDisplay:10.36,2013-11-05 18:07:00,
2013-11-05 13:12:00,52.9,37.6,30.51,SE,134,0.0,0.0,56,0.00,CLR,CLR,0.00,WeatherDisplay:10.36,2013-11-05 18:12:00,
2013-11-05 13:17:00,52.9,37.6,30.50,SE,139,2.3,2.3,56,0.00,CLR,CLR,0.00,WeatherDisplay:10.36,2013-11-05 18:17:00,
2013-11-05 13:22:00,53.1,37.3,30.50,South,176,1.2,1.2,55,0.00,CLR,CLR,0.00,WeatherDisplay:10.36,2013-11-05 18:22:00,
2013-11-05 13:27:00,52.9,37.6,30.50,South,176,0.0,0.0,56,0.00,CLR,CLR,0.00,WeatherDisplay:10.36,2013-11-05 18:27:00,
2013-11-05 13:32:00,52.9,37.6,30.50,South,176,0.0,0.0,56,0.00,CLR,CLR,0.00,WeatherDisplay:10.36,2013-11-05 18:32:00,
2013-11-05 13:37:00,52.8,37.5,30.50,South,176,0.0,0.0,56,0.00,CLR,CLR,0.00,WeatherDisplay:10.36,2013-11-05 18:37:00,
2013-11-05 13:42:00,52.8,37.5,30.50,South,176,0.0,0.0,56,0.00,CLR,CLR,0.00,WeatherDisplay:10.36,2013-11-05 18:42:00,
2013-11-05 13:47:00,52.8,37.5,30.50,South,176,0.0,0.0,56,0.00,CLR,CLR,0.00,WeatherDisplay:10.36,2013-11-05 18:47:00,
2013-11-05 13:52:00,52.9,37.6,30.50,SSE,158,0.0,0.0,56,0.00,CLR,CLR,0.00,WeatherDisplay:10.36,2013-11-05 18:52:00,
2013-11-05 13:57:00,52.9,37.6,30.49,SSE,158,0.0,0.0,56,0.00,CLR,CLR,0.00,WeatherDisplay:10.36,2013-11-05 18:57:00,
2013-11-05 14:02:00,52.9,37.6,30.49,SSE,158,0.0,0.0,56,0.00,CLR,CLR,0.00,WeatherDisplay:10.36,2013-11-05 19:02:00,
2013-11-05 14:07:00,53.2,37.9,30.49,SSE,158,0.0,0.0,56,0.00,CLR,CLR,0.00,WeatherDisplay:10.36,2013-11-05 19:07:00,
2013-11-05 14:12:00,53.3,37.5,30.49,South,188,1.2,0.0,55,0.00,CLR,CLR,0.00,WeatherDisplay:10.36,2013-11-05 19:12:00,
2013-11-05 14:17:00,53.5,38.2,30.48,South,188,0.0,0.0,56,0.00,CLR,CLR,0.00,WeatherDisplay:10.36,2013-11-05 19:17:00,
2013-11-05 14:22:00,53.5,37.7,30.48,South,188,0.0,0.0,55,0.00,CLR,CLR,0.00,WeatherDisplay:10.36,2013-11-05 19:22:00,
2013-11-05 14:27:00,53.3,37.5,30.48,South,188,0.0,0.0,55,0.00,CLR,CLR,0.00,WeatherDisplay:10.36,2013-11-05 19:27:00,
2013-11-05 14:32:00,53.5,37.7,30.48,South,188,0.0,0.0,55,0.00,CLR,CLR,0.00,WeatherDisplay:10.36,2013-11-05 19:32:00,
2013-11-05 14:37:00,53.5,37.7,30.48,South,188,0.0,0.0,55,0.00,CLR,CLR,0.00,WeatherDisplay:10.36,2013-11-05 19:37:00,
2013-11-05 14:42:00,53.5,37.7,30.48,South,188,2.3,2.3,55,0.00,CLR,CLR,0.00,WeatherDisplay:10.36,2013-11-05 19:42:00,
2013-11-05 14:47:00,53.3,37.5,30.47,South,188,1.2,0.0,55,0.00,CLR,CLR,0.00,WeatherDisplay:10.36,2013-11-05 19:47:00,
2013-11-05 14:52:00,53.3,37.5,30.47,South,188,0.0,0.0,55,0.00,CLR,CLR,0.00,WeatherDisplay:10.36,2013-11-05 19:52:00,
2013-11-05 14:57:00,53.3,37.5,30.47,South,188,0.0,0.0,55,0.00,CLR,CLR,0.00,WeatherDisplay:10.36,2013-11-05 19:57:00,
2013-11-05 15:02:00,53.3,37.5,30.47,South,188,2.3,2.3,55,0.00,CLR,CLR,0.00,WeatherDisplay:10.36,2013-11-05 20:02:00,
2013-11-05 15:07:00,53.2,37.4,30.47,South,178,0.0,0.0,55,0.00,CLR,CLR,0.00,WeatherDisplay:10.36,2013-11-05 20:07:00,
2013-11-05 15:12:00,52.9,37.6,30.47,South,171,0.0,0.0,56,0.00,CLR,CLR,0.00,WeatherDisplay:10.36,2013-11-05 20:12:00,
2013-11-05 15:17:00,52.8,37.5,30.46,South,172,2.3,2.3,56,0.00,CLR,CLR,0.00,WeatherDisplay:10.36,2013-11-05 20:17:00,
2013-11-05 15:22:00,52.6,37.8,30.46,South,172,0.0,0.0,57,0.00,CLR,CLR,0.00,WeatherDisplay:10.36,2013-11-05 20:22:00,
2013-11-05 15:27:00,52.5,37.7,30.46,South,172,0.0,0.0,57,0.00,CLR,CLR,0.00,WeatherDisplay:10.36,2013-11-05 20:27:00,
2013-11-05 15:32:00,52.5,37.7,30.46,South,172,0.0,0.0,57,0.00,CLR,CLR,0.00,WeatherDisplay:10.36,2013-11-05 20:32:00,
2013-11-05 15:37:00,52.5,37.7,30.46,South,172,0.0,0.0,57,0.00,CLR,CLR,0.00,WeatherDisplay:10.36,2013-11-05 20:37:00,
2013-11-05 15:42:00,52.3,38.0,30.46,West,276,1.0,1.0,58,0.00,CLR,CLR,0.00,WeatherDisplay:10.36,2013-11-05 20:42:00,
2013-11-05 15:47:00,52.3,38.0,30.46,West,276,2.3,2.3,58,0.00,CLR,CLR,0.00,WeatherDisplay:10.36,2013-11-05 20:47:00,
2013-11-05 15:52:00,52.3,38.0,30.46,West,276,2.3,2.3,58,0.00,CLR,CLR,0.00,WeatherDisplay:10.36,2013-11-05 20:52:00,
2013-11-05 16:16:00,52.3,38.0,30.46,SSW,192,0.0,2.0,58,0.00,CLR,CLR,0.00,WeatherDisplay:10.36,2013-11-05 21:16:00,
2013-11-05 16:21:00,51.7,38.3,30.46,WSW,238,0.0,0.0,60,0.00,CLR,CLR,0.00,WeatherDisplay:10.36,2013-11-05 21:21:00,
2013-11-05 16:26:00,51.6,38.2,30.46,WSW,238,0.0,0.0,60,0.00,CLR,CLR,0.00,WeatherDisplay:10.36,2013-11-05 21:26:00,
2013-11-05 16:31:00,51.4,38.0,30.46,WSW,238,0.0,0.0,60,0.00,CLR,CLR,0.00,WeatherDisplay:10.36,2013-11-05 21:31:00,
2013-11-05 16:36:00,51.3,38.3,30.46,WSW,238,0.0,0.0,61,0.00,CLR,CLR,0.00,WeatherDisplay:10.36,2013-11-05 21:36:00,
2013-11-05 16:41:00,51.1,38.5,30.46,WSW,238,0.0,0.0,62,0.00,CLR,CLR,0.00,WeatherDisplay:10.36,2013-11-05 21:41:00,
2013-11-05 16:46:00,51.1,38.5,30.46,WSW,241,0.0,0.0,62,0.00,CLR,CLR,0.00,WeatherDisplay:10.36,2013-11-05 21:46:00,
2013-11-05 16:51:00,51.0,38.4,30.45,SW,231,0.0,0.0,62,0.00,CLR,CLR,0.00,WeatherDisplay:10.36,2013-11-05 21:51:00,
2013-11-05 16:56:00,50.8,38.7,30.45,SW,231,0.0,0.0,63,0.00,CLR,CLR,0.00,WeatherDisplay:10.36,2013-11-05 21:56:00,
2013-11-05 17:01:00,50.7,38.6,30.45,SW,231,0.0,0.0,63,0.00,CLR,CLR,0.00,WeatherDisplay:10.36,2013-11-05 22:01:00,
2013-11-05 17:06:00,50.5,38.8,30.45,SW,231,0.0,0.0,64,0.00,CLR,CLR,0.00,WeatherDisplay:10.36,2013-11-05 22:06:00,
2013-11-05 17:11:00,50.4,38.7,30.45,SW,231,0.0,0.0,64,0.00,CLR,CLR,0.00,WeatherDisplay:10.36,2013-11-05 22:11:00,
2013-11-05 17:16:00,50.2,38.5,30.45,SW,231,0.0,0.0,64,0.00,CLR,CLR,0.00,WeatherDisplay:10.36,2013-11-05 22:16:00,
2013-11-05 17:21:00,50.2,38.5,30.45,SW,224,1.2,0.0,64,0.00,CLR,CLR,0.00,WeatherDisplay:10.36,2013-11-05 22:21:00,
2013-11-05 17:26:00,50.1,38.8,30.45,SW,224,0.0,0.0,65,0.00,CLR,CLR,0.00,WeatherDisplay:10.36,2013-11-05 22:26:00,
2013-11-05 17:31:00,50.1,38.8,30.45,SW,224,0.0,0.0,65,0.00,CLR,CLR,0.00,WeatherDisplay:10.36,2013-11-05 22:31:00,
2013-11-05 17:36:00,49.9,38.6,30.46,SW,224,0.0,0.0,65,0.00,CLR,CLR,0.00,WeatherDisplay:10.36,2013-11-05 22:36:00,
2013-11-05 17:41:00,49.9,38.6,30.46,SW,224,0.0,0.0,65,0.00,CLR,CLR,0.00,WeatherDisplay:10.36,2013-11-05 22:41:00,
2013-11-05 17:46:00,49.8,38.5,30.46,SW,224,0.0,0.0,65,0.00,CLR,CLR,0.00,WeatherDisplay:10.36,2013-11-05 22:46:00,
2013-11-05 17:51:00,49.5,38.6,30.46,SW,224,0.0,0.0,66,0.00,CLR,CLR,0.00,WeatherDisplay:10.36,2013-11-05 22:51:00,
2013-11-05 17:56:00,49.4,38.5,30.47,SW,224,0.0,0.0,66,0.00,CLR,CLR,0.00,WeatherDisplay:10.36,2013-11-05 22:56:00,
2013-11-05 18:01:00,49.2,38.7,30.47,SW,224,0.0,0.0,67,0.00,CLR,CLR,0.00,WeatherDisplay:10.36,2013-11-05 23:01:00,
2013-11-05 18:06:00,49.1,38.6,30.47,SW,224,0.0,0.0,67,0.00,CLR,CLR,0.00,WeatherDisplay:10.36,2013-11-05 23:06:00,
2013-11-05 18:11:00,48.9,38.8,30.47,SW,224,0.0,0.0,68,0.00,CLR,CLR,0.00,WeatherDisplay:10.36,2013-11-05 23:11:00,
2013-11-05 18:16:00,48.8,38.7,30.47,SW,224,0.0,0.0,68,0.00,CLR,CLR,0.00,WeatherDisplay:10.36,2013-11-05 23:16:00,
2013-11-05 18:31:00,48.3,38.6,30.47,SW,224,0.0,0.0,69,0.00,CLR,CLR,0.00,WeatherDisplay:10.36,2013-11-05 23:31:00,
2013-11-05 18:32:00,48.3,38.6,30.47,SW,224,0.0,0.0,69,0.00,CLR,CLR,0.00,WeatherDisplay:10.36,2013-11-05 23:32:00,
2013-11-05 18:37:00,48.3,38.6,30.47,SW,224,0.0,0.0,69,0.00,CLR,CLR,0.00,WeatherDisplay:10.36,2013-11-05 23:37:00,
2013-11-05 18:50:00,48.0,38.7,30.47,SW,224,0.0,0.0,70,0.00,CLR,CLR,0.00,WeatherDisplay:10.36,2013-11-05 23:50:00,
2013-11-05 18:52:00,47.9,38.6,30.48,SW,224,0.0,0.0,70,0.00,CLR,CLR,0.00,WeatherDisplay:10.36,2013-11-05 23:52:00,
2013-11-05 18:55:00,47.9,38.6,30.48,SW,224,0.0,0.0,70,0.00,CLR,CLR,0.00,WeatherDisplay:10.36,2013-11-05 23:55:00,
2013-11-05 19:00:00,47.9,38.6,30.48,SW,224,0.0,0.0,70,0.00,CLR,CLR,0.00,WeatherDisplay:10.36,2013-11-06 00:00:00,
2013-11-05 19:09:00,47.7,38.8,30.47,SW,224,0.0,0.0,71,0.00,CLR,CLR,0.00,WeatherDisplay:10.36,2013-11-06 00:09:00,
2013-11-05 19:10:00,47.7,38.8,30.47,SW,224,0.0,0.0,71,0.00,CLR,CLR,0.00,WeatherDisplay:10.36,2013-11-06 00:10:00,
2013-11-05 19:14:00,47.7,38.8,30.47,SW,224,0.0,0.0,71,0.00,CLR,CLR,0.00,WeatherDisplay:10.36,2013-11-06 00:14:00,
2013-11-05 19:19:00,47.7,38.8,30.47,SW,224,0.0,0.0,71,0.00,CLR,CLR,0.00,WeatherDisplay:10.36,2013-11-06 00:19:00,
2013-11-05 19:28:00,47.6,39.0,30.47,SW,224,0.0,0.0,72,0.00,CLR,CLR,0.00,WeatherDisplay:10.36,2013-11-06 00:28:00,
2013-11-05 19:33:00,47.6,39.0,30.47,SW,224,0.0,0.0,72,0.00,CLR,CLR,0.00,WeatherDisplay:10.36,2013-11-06 00:33:00,
2013-11-05 19:38:00,47.6,39.0,30.47,SW,224,0.0,0.0,72,0.00,CLR,CLR,0.00,WeatherDisplay:10.36,2013-11-06 00:38:00,
2013-11-05 19:46:00,47.0,38.8,30.48,SW,224,0.0,0.0,73,0.00,CLR,CLR,0.00,WeatherDisplay:10.36,2013-11-06 00:46:00,
2013-11-05 19:51:00,47.0,38.8,30.47,SW,224,0.0,0.0,73,0.00,CLR,CLR,0.00,WeatherDisplay:10.36,2013-11-06 00:51:00,
2013-11-05 19:56:00,46.7,38.9,30.47,SW,224,0.0,0.0,74,0.00,CLR,CLR,0.00,WeatherDisplay:10.36,2013-11-06 00:56:00,
2013-11-05 20:01:00,46.5,38.7,30.47,SW,224,0.0,0.0,74,0.00,CLR,CLR,0.00,WeatherDisplay:10.36,2013-11-06 01:01:00,
2013-11-05 20:06:00,46.4,38.9,30.46,SW,224,0.0,0.0,75,0.00,CLR,CLR,0.00,WeatherDisplay:10.36,2013-11-06 01:06:00,
2013-11-05 20:11:00,46.4,38.9,30.46,SW,224,0.0,0.0,75,0.00,CLR,CLR,0.00,WeatherDisplay:10.36,2013-11-06 01:11:00,
2013-11-05 20:16:00,46.2,38.7,30.46,SW,224,0.0,0.0,75,0.00,CLR,CLR,0.00,WeatherDisplay:10.36,2013-11-06 01:16:00,
2013-11-05 20:21:00,46.2,38.7,30.45,SW,224,0.0,0.0,75,0.00,CLR,CLR,0.00,WeatherDisplay:10.36,2013-11-06 01:21:00,
2013-11-05 20:26:00,46.1,38.6,30.46,SW,224,0.0,0.0,75,0.00,CLR,CLR,0.00,WeatherDisplay:10.36,2013-11-06 01:26:00,
2013-11-05 20:31:00,46.1,39.0,30.46,SW,224,0.0,0.0,76,0.00,CLR,CLR,0.00,WeatherDisplay:10.36,2013-11-06 01:31:00,
2013-11-05 20:36:00,46.0,38.9,30.46,SW,224,0.0,0.0,76,0.00,CLR,CLR,0.00,WeatherDisplay:10.36,2013-11-06 01:36:00,
2013-11-05 20:41:00,45.8,38.7,30.46,SW,224,0.0,0.0,76,0.00,CLR,CLR,0.00,WeatherDisplay:10.36,2013-11-06 01:41:00,
2013-11-05 20:46:00,45.7,38.9,30.46,SW,224,0.0,0.0,77,0.00,CLR,CLR,0.00,WeatherDisplay:10.36,2013-11-06 01:46:00,
2013-11-05 20:51:00,45.5,38.7,30.45,SW,224,0.0,0.0,77,0.00,CLR,CLR,0.00,WeatherDisplay:10.36,2013-11-06 01:51:00,
2013-11-05 20:56:00,45.4,38.6,30.45,SW,224,0.0,0.0,77,0.00,CLR,CLR,0.00,WeatherDisplay:10.36,2013-11-06 01:56:00,
2013-11-05 21:01:00,45.4,38.9,30.45,SW,224,0.0,0.0,78,0.00,CLR,CLR,0.00,WeatherDisplay:10.36,2013-11-06 02:01:00,
2013-11-05 21:06:00,45.2,38.7,30.45,SW,224,0.0,0.0,78,0.00,CLR,CLR,0.00,WeatherDisplay:10.36,2013-11-06 02:06:00,
2013-11-05 21:11:00,45.2,38.7,30.45,SW,224,0.0,0.0,78,0.00,CLR,CLR,0.00,WeatherDisplay:10.36,2013-11-06 02:11:00,
2013-11-05 21:16:00,45.2,38.7,30.45,SW,224,0.0,0.0,78,0.00,CLR,CLR,0.00,WeatherDisplay:10.36,2013-11-06 02:16:00,
2013-11-05 21:21:00,45.1,39.0,30.45,SW,224,0.0,0.0,79,0.00,CLR,CLR,0.00,WeatherDisplay:10.36,2013-11-06 02:21:00,
2013-11-05 21:26:00,45.1,39.0,30.45,SW,224,0.0,0.0,79,0.00,CLR,CLR,0.00,WeatherDisplay:10.36,2013-11-06 02:26:00,
2013-11-05 21:31:00,45.1,39.0,30.45,SW,224,0.0,0.0,79,0.00,CLR,CLR,0.00,WeatherDisplay:10.36,2013-11-06 02:31:00,
2013-11-05 21:36:00,45.1,39.0,30.45,SW,224,0.0,0.0,79,0.00,CLR,CLR,0.00,WeatherDisplay:10.36,2013-11-06 02:36:00,
2013-11-05 21:41:00,45.1,39.0,30.45,SW,224,0.0,0.0,79,0.00,CLR,CLR,0.00,WeatherDisplay:10.36,2013-11-06 02:41:00,
2013-11-05 21:46:00,44.9,39.1,30.44,SW,224,0.0,0.0,80,0.00,CLR,CLR,0.00,WeatherDisplay:10.36,2013-11-06 02:46:00,
2013-11-05 21:51:00,44.9,39.1,30.44,SW,224,0.0,0.0,80,0.00,CLR,CLR,0.00,WeatherDisplay:10.36,2013-11-06 02:51:00,
2013-11-05 21:56:00,44.9,39.1,30.43,SW,224,0.0,0.0,80,0.00,CLR,CLR,0.00,WeatherDisplay:10.36,2013-11-06 02:56:00,
2013-11-05 22:01:00,44.8,39.0,30.43,SW,224,0.0,0.0,80,0.00,CLR,CLR,0.00,WeatherDisplay:10.36,2013-11-06 03:01:00,
2013-11-05 22:06:00,44.8,39.0,30.43,SW,224,0.0,0.0,80,0.00,CLR,CLR,0.00,WeatherDisplay:10.36,2013-11-06 03:06:00,
2013-11-05 22:11:00,44.9,39.1,30.43,SW,224,0.0,0.0,80,0.00,CLR,CLR,0.00,WeatherDisplay:10.36,2013-11-06 03:11:00,
2013-11-05 22:16:00,44.9,39.4,30.43,SW,224,0.0,0.0,81,0.00,CLR,CLR,0.00,WeatherDisplay:10.36,2013-11-06 03:16:00,
2013-11-05 22:21:00,44.8,39.3,30.42,SW,224,0.0,0.0,81,0.00,CLR,CLR,0.00,WeatherDisplay:10.36,2013-11-06 03:21:00,
2013-11-05 22:26:00,44.8,39.3,30.42,SW,224,0.0,0.0,81,0.00,CLR,CLR,0.00,WeatherDisplay:10.36,2013-11-06 03:26:00,
2013-11-05 22:31:00,44.8,39.3,30.42,SW,224,0.0,0.0,81,0.00,CLR,CLR,0.00,WeatherDisplay:10.36,2013-11-06 03:31:00,
2013-11-05 22:36:00,44.8,39.3,30.41,SW,224,0.0,0.0,81,0.00,CLR,CLR,0.00,WeatherDisplay:10.36,2013-11-06 03:36:00,
2013-11-05 22:41:00,44.8,39.3,30.42,SW,224,0.0,0.0,81,0.00,CLR,CLR,0.00,WeatherDisplay:10.36,2013-11-06 03:41:00,
2013-11-05 22:46:00,44.8,39.3,30.43,SW,224,0.0,0.0,81,0.00,CLR,CLR,0.00,WeatherDisplay:10.36,2013-11-06 03:46:00,
2013-11-05 22:51:00,44.6,39.1,30.43,SW,224,0.0,0.0,81,0.00,CLR,CLR,0.00,WeatherDisplay:10.36,2013-11-06 03:51:00,
2013-11-05 22:56:00,44.5,39.0,30.43,SW,224,0.0,0.0,81,0.00,CLR,CLR,0.00,WeatherDisplay:10.36,2013-11-06 03:56:00,
2013-11-05 23:01:00,44.2,39.1,30.43,SW,224,0.0,0.0,82,0.00,CLR,CLR,0.00,WeatherDisplay:10.36,2013-11-06 04:01:00,
2013-11-05 23:06:00,44.1,39.0,30.42,SW,224,0.0,0.0,82,0.00,CLR,CLR,0.00,WeatherDisplay:10.36,2013-11-06 04:06:00,
2013-11-05 23:11:00,44.1,39.0,30.42,SW,224,0.0,0.0,82,0.00,CLR,CLR,0.00,WeatherDisplay:10.36,2013-11-06 04:11:00,
2013-11-05 23:16:00,43.9,38.8,30.42,SW,224,0.0,0.0,82,0.00,CLR,CLR,0.00,WeatherDisplay:10.36,2013-11-06 04:16:00,
2013-11-05 23:21:00,43.9,39.1,30.41,SW,224,0.0,0.0,83,0.00,CLR,CLR,0.00,WeatherDisplay:10.36,2013-11-06 04:21:00,
2013-11-05 23:26:00,43.8,39.0,30.41,SW,224,0.0,0.0,83,0.00,CLR,CLR,0.00,WeatherDisplay:10.36,2013-11-06 04:26:00,
2013-11-05 23:30:00,43.8,39.0,30.41,SW,224,0.0,0.0,83,0.00,CLR,CLR,0.00,WeatherDisplay:10.36,2013-11-06 04:30:00,
2013-11-05 23:31:00,43.8,39.0,30.41,SW,224,0.0,0.0,83,0.00,CLR,CLR,0.00,WeatherDisplay:10.36,2013-11-06 04:31:00,
2013-11-05 23:36:00,43.8,39.0,30.41,SW,224,0.0,0.0,83,0.00,CLR,CLR,0.00,WeatherDisplay:10.36,2013-11-06 04:36:00,
2013-11-05 23:46:00,43.8,39.0,30.41,SW,224,0.0,0.0,83,0.00,CLR,CLR,0.00,WeatherDisplay:10.36,2013-11-06 04:46:00,
2013-11-05 23:47:00,43.5,39.0,30.42,SW,224,0.0,0.0,84,0.00,CLR,CLR,0.00,WeatherDisplay:10.36,2013-11-06 04:47:00,
2013-11-05 23:52:00,43.5,39.0,30.42,SW,224,0.0,0.0,84,0.00,CLR,CLR,0.00,WeatherDisplay:10.36,2013-11-06 04:52:00,